sat.trackr.live / text

‹ back to catalog

NIGERIASAT-2

NORAD 37789 · 2011-044B

PAYLOAD ACTIVE UNKNOWN

§ Identity

Operator
Country
NIG
Launch date
2011-08-17
Launch site
DLS
Launch vehicle
Mass (kg)
RCS (m²)
0.50

External: N2YO · Heavens-Above · Gunter

§ Orbital elements

Epoch: 2026-05-25T05:01:54.771744Z

Period
97.93 min
Inclination
97.8768°
Eccentricity
0.0029448
Mean motion
14.70495339 rev/d
Perigee alt
638.8 km
Apogee alt
680.2 km
Semi-major
7,037.6 km
B*
1.2870e-4
RAAN
123.1530°
Arg perigee
193.1210°
Mean anomaly
257.1043°
Rev number
78,719

§ Raw data

NIGERIASAT-21 37789U 11044B   26145.20966171  .00000737  00000+0  12870-3 0  99912 37789  97.8768 123.1530 0029448 193.1210 257.1043 14.70495339787199

JSON: /api/v1/satellites/37789 · /tle

For live sub-satellite position, see the globe view (requires WebGL).

§ Visibility from observer

Set your observer location to see the next 7 days of passes ≥ 10°. The values pass through the URL so the page stays shareable.

No JS? Fill the form by hand. The geolocation button needs JavaScript.